Regional Weather Roundup
Issued by NWS

Home | Current Version | Previous Version | Text Only | Print | Product List | Glossary On
Versions: 1 2 3 4 5 6 7 8 9 10 11 12 13 14 15 16 17 18 19 20 21 22 23 24 25 26 27 28 29 30 31 32 33 34 35 36 37 38 39 40 41 42 43 44 45 46 47 48 49 50
301
ASUS45 KTFX 270910
RWRMT
MONTANA REGIONAL WEATHER ROUNDUP
NATIONAL WEATHER SERVICE GREAT FALLS MT
300 AM MDT MON MAR 27 2017

NOTE: "FAIR" INDICATES FEW OR NO CLOUDS BELOW 12000 FEET WITH NO
SIGNIFICANT WEATHER AND/OR OBSTRUCTIONS TO VISIBILITY.

MTZ001>007-043-271000-
WEST OF THE DIVIDE

CITY           SKY/WX    TMP DP  RH WIND       PRES   REMARKS
KALISPELL      LGT RAIN  39  36  89 SW3       29.82S
MISSOULA       CLOUDY    41  38  89 CALM      29.84S
BUTTE          CLOUDY    38  30  73 N3        29.83R
MULLAN PASS    SNOW      30  30 100 S6        29.77S VSB 1/2 WCI  24
ANACONDA         N/A     37  27  65 SE3       29.82S
DEER LODGE       N/A     37  32  81 CALM      29.85R
EUREKA           N/A     41  36  81 S8        29.80S
HAMILTON         N/A     43  34  70 S5        29.83R
PLAINS           N/A     40  34  79 CALM      29.84S
RONAN            N/A     40  37  89 CALM      29.87S
$$

MTZ008-052>055-271000-
SOUTHWEST MONTANA

CITY           SKY/WX    TMP DP  RH WIND       PRES   REMARKS
BOZEMAN        CLOUDY    41  34  76 W5        29.83R
DILLON         CLOUDY    37  31  78 SE5       29.82S
W YELLOWSTONE  LGT SNOW  32  30  93 SW7       29.88S WCI  26
ENNIS          CLOUDY    36  28  75 S12       29.87S WCI  27
THREE FORKS      N/A     41  -1  17 CALM      29.83S
$$

MTZ009-010-012-014-046-048-049-054-271000-
EAST SLOPES AND CENTRAL MONTANA

CITY           SKY/WX    TMP DP  RH WIND       PRES   REMARKS
CUT BANK       CLOUDY    39  29  67 CALM      29.79S
GREAT FALLS    MOCLDY    38  22  52 S10       29.79R WCI  31
MALMSTROM AFB  MOCLDY    45  26  48 SW13      29.79R
HELENA         CLOUDY    44  35  70 SE5       29.80S
AUGUSTA        MOCLDY    37  30  77 NW7       29.78F WCI  31
BOWMANS CRNR   MOCLDY    38  30  71 S12       29.77S WCI  31
CHOTEAU          N/A     41  32  70 W6        29.80S
CONRAD           N/A     38  27  65 S2        29.83S
FAIRFIELD      MOCLDY    39  26  58 W3        29.78S
POWER            N/A     36  22  55 W8        29.78R WCI  30
RAYNESFORD     MOCLDY    43  31  60 SW16      29.79S
$$

MTZ011-013-016-021-045-047-050-051-271000-
NORTH CENTRAL MONTANA

CITY           SKY/WX    TMP DP  RH WIND       PRES   REMARKS
HAVRE          CLOUDY    41  24  51 NE7       29.80S
LEWISTOWN      CLOUDY    40  26  57 CALM      29.81R
N BAR RANCH    CLOUDY    39  27  60 CALM      29.83S
CHINOOK          N/A     36  23  60 CALM      29.83S
DENTON         MOCLDY    39  28  64 SE6       29.76S
FORT BENTON      N/A     48  25  40 MISG      29.79S
GEYSER         MOCLDY    39  24  53 W5        29.79S
GRASS RANGE    CLOUDY    41  28  60 SW7       29.78S
STANFORD       CLOUDY    41  29  62 SW6       29.79S
WINIFRED       MOCLDY    39  27  62 E7        29.79F
$$

MTZ017>020-022>027-061-062-271000-
NORTHEAST MONTANA

CITY           SKY/WX    TMP DP  RH WIND       PRES   REMARKS
GLASGOW        PTCLDY    31  23  72 E10       29.85S WCI  22
JORDAN           N/A     34  27  75 E3        29.82F
SIDNEY         CLOUDY    34  28  79 CALM      29.88S
WOLF POINT     PTCLDY    34  28  79 CALM      29.88S
MALTA          MOCLDY    32  27  80 NE3       29.84S
PLENTYWOOD       N/A     32  25  74 CALM      29.89R
POPLAR           N/A     34  28  80 N5        29.88S
SCOBEY           N/A     24  15  68 CALM      29.87
$$

MTZ028>42-056>058-271000-
SOUTHCENTRAL AND SOUTHEAST MONTANA

CITY           SKY/WX    TMP DP  RH WIND       PRES   REMARKS
BAKER          CLOUDY    38  33  82 SE3       29.87F
BILLINGS       MOCLDY    45  31  58 W9        29.79R
LIVINGSTON     CLOUDY    39  29  67 W12       29.81S WCI  32
MILES CITY     CLOUDY    45  35  68 SE8       29.83S
BIG TIMBER     CLOUDY    41  30  65 W10       29.84S
EKALAKA          N/A     40  31  70 SE7       29.85
FORSYTH          N/A     46  34  61 SE6       29.80F
HARLOWTON      CLOUDY    40  29  64 NW8       29.81S
LAUREL           N/A     43  26  51 S2        29.80F
$$

REGIONAL REPORTS...DAKOTAS

CITY           SKY/WX    TMP DP  RH WIND       PRES   REMARKS
WILLISTON      CLOUDY    34  30  85 CALM      29.88S
MINOT          CLEAR     34  31  88 W3        29.87F
DICKINSON      CLOUDY    38  31  76 W5        29.85F
BEACH            N/A    N/A N/A N/A MISG        N/A
TIOGA          MOCLDY    32  32 100 CALM      29.89S
WATFORD CITY   MOCLDY    32  30  93 CALM      29.88S
BISMARCK       PTCLDY    32  30  92 E5        29.91F
GRAND FORKS    FOG       39  39 100 CALM      29.96S VSB 3/4
FARGO          CLOUDY    34  33  96 CALM      29.95F FOG
BUFFALO SD       N/A     38  34  85 E5        29.81F
RAPID CITY     CLOUDY    30  29  96 SE3       29.89F
$$

REGIONAL REPORTS...WYOMING/IDAHO/WASHINGTON

CITY           SKY/WX    TMP DP  RH WIND       PRES   REMARKS
GILLETTE       CLEAR     38  34  85 S12       29.84F WCI  30
SHERIDAN       CLOUDY    41  35  79 NW8       29.81S
BUFFALO WY     CLEAR     40  31  70 S6        29.83F
CODY           CLOUDY    44  21  40 W9        29.84S
YELLOWSTONE LA   N/A     27  27 100 CALM      29.90F
IDAHO FALLS    LGT RAIN  41  37  86 S12       29.90F
SALMON         CLOUDY    39  34  81 CALM      29.83S
BOISE          CLOUDY    43  41  93 E6        29.90F
SPOKANE        DRIZZLE   41  39  93 SE6       29.81S
$$

REGIONAL REPORTS...ALBERTA

CITY           SKY/WX    TMP DP  RH WIND       PRES   REMARKS
EDMONTON       CLOUDY    34  30  86 E5        29.77S
CALGARY        MOCLDY    39  16  38 W3        29.71S
LETHBRIDGE     MOCLDY    45  27  49 S9G21     29.77S
MEDICINE HAT   CLOUDY    37  25  60 SW3       29.79S
WATERTON GATE    N/A     36  30  80 SW9         N/A  WCI  29
CARDSTON         N/A     39  27  60 S6          N/A
MILK RIVER       N/A     41  32  70 SW9         N/A
ONEFOUR          N/A     34  25  69 N6          N/A  WCI  29
$$

REGIONAL REPORTS...SASKATCHEWAN

CITY           SKY/WX    TMP DP  RH WIND       PRES   REMARKS
SWIFT CURRENT  CLEAR     27  27 100 E9        29.83S WCI  17
REGINA         FOG       28  28 100 N8        29.89S VSB 3/8 WCI  20
SASKATOON      FOG       27  27 100 E9        29.96R VSB 1/2 WCI  17
CYPRESS HILLS    N/A     36  14  41 S6          N/A  WCI  31
VAL MARIE        N/A     25  21  86 NE6         N/A  WCI  18
ROCKGLEN         N/A     34  18  51 S2          N/A
ASSINIBOIA       N/A     34  32  93 SE7         N/A  WCI  28
$$




USA.gov is the U.S. government's official web portal to all federal, state and local government web resources and services.